Погода в Алексеево-Дружковке

Украина / Донецкая область     48°34′44″N   37°36′42″E
темп.,
°C
ветер,
м/с
пор.,
м/с
влажн.,
%
обл.,
%
осадки,
мм/ч
давл.,
гПа
погр.,
м
16 мая, вс
вс1600:00+15ссв11700 0.0 101311
03:00+14св22730 0.0 101314
06:00+15св35775 0.0 101388
09:00+21всв466369 0.0 1012450
12:00+26всв455260 0.0 10111308
15:00+28св565089 0.0 10092008
18:00+25в71057100 0.0 1007521
21:00+18всв411705 0.0 1007169
17 мая, пн
пн1700:00+16всв4107217 0.0 1006186
03:00+16вюв386469 0.0 1005127
06:00+15в411705 0.0 1005210
09:00+21юв7115217 0.0 1005585
12:00+25ююв7953100 0.0 10051074
15:00+26ю675183 0.0 10051414
18:00+23ююв61059100 0.0 1006713
21:00+18ю51182100 0.0 1008419
18 мая, вт
вт1800:00+15ююз4108310 0.0 1008363
03:00+14ююз41187100 0.0 1009422
06:00+14ю4989100 0.0 1009326
09:00+19ююз4567100 0.0 1009628
12:00+22ююз455629 0.5 10081501
15:00+22ю5655100 1.2 10071782
18:00+20ю59677 0.3 1007465
21:00+15ююз348869 0.6 100865
19 мая, ср
ср1900:00+15ююз51083100 0.0 1007504
03:00+14ююз4791100 0.7 1007480
06:00+13ююз51093100 3.8 1007490
09:00+13зюз7108974 4.1 1009695
12:00+16зюз8116371 0.3 10101618
15:00+18зюз9135979 0.8 10111809
18:00+16з6136716 0.7 10121376
21:00+12юз378310 0.7 1013114
20 мая, чт
чт2000:00+11ююз48905 0.0 1014156
03:00+10ююз37912 0.0 1015112
06:00+11юз2488100 0.0 1015120
09:00+17ю3365100 0.0 1015667
12:00+20ююв454890 0.0 10151614
15:00+21вюв4545100 0.0 10131532
18:00+21вюв585482 0.0 1012663
21:00+18в5136917 0.0 1011469